This demonstration page uses our WeatherBlox Daily Observations layout. Learn more.

36.19886, -115.1175

Hourly Observations for August 4, 2020

Temp ( °F °C ) Dew Point ( °F °C ) Humidity (%) Winds ( mph kmh ) Pressure ( in mb ) Visibility ( mi km ) Precip ( " mm )
12:53 am 00:53 Clear 89 31.7 29 -1.7 11 11 WSW 7 11 29.79 1009 10 16.0934 0 0
1:53 am 01:53 Clear 85 29.4 31 -0.6 14 14 NW 6 9 29.78 1009 10 16.0934 0 0
2:53 am 02:53 Clear 83 28.3 29 -1.7 14 14 NW 5 7 29.79 1009 10 16.0934 0 0
3:53 am 03:53 Clear 82 27.8 25 -3.9 12 12 NNW 3 6 29.8 1009 10 16.0934 0 0
4:53 am 04:53 Clear 80 26.7 25 -3.9 13 13 NNW 3 6 29.81 1010 10 16.0934 0 0
5:53 am 05:53 Sunny 78 25.6 24 -4.4 13 13 NW 5 7 29.83 1010 10 16.0934 0 0
6:53 am 06:53 Sunny 80 26.7 25 -3.9 13 13 NW 6 9 29.85 1011 10 16.0934 0 0
7:53 am 07:53 Sunny 86 30 25 -3.9 11 11 NNW 5 7 29.86 1011 10 16.0934 0 0
8:53 am 08:53 Sunny 89 31.7 26 -3.3 10 10 Calm 29.88 1012 10 16.0934 0 0
9:53 am 09:53 Sunny 93 33.9 26 -3.3 9 9 S 5 7 29.88 1012 10 16.0934 0 0
10:53 am 10:53 Sunny 98 36.7 25 -3.9 7 7 VRB 5 7 29.88 1012 10 16.0934 0 0
11:53 am 11:53 Sunny 101 38.3 23 -5 6 6 ESE 10 17 29.86 1011 10 16.0934 0 0
12:27 pm 12:27 Sunny 104 40 23 -5 6 6 S 14 22 29.69 1005 10 16.0934 0 0
12:53 pm 12:53 Sunny 103 39.4 25 -3.9 6 6 SSE 12 19 29.85 1011 10 16.0934 0 0
1:53 pm 13:53 Sunny 105 40.6 25 -3.9 6 6 SSE 9 15 29.82 1010 10 16.0934 0 0
2:53 pm 14:53 Sunny 107 41.7 25 -3.9 5 5 SE 12 19 29.8 1009 10 16.0934 0 0
3:53 pm 15:53 Sunny 107 41.7 31 -0.6 7 7 undefined N/A 29.77 1008 10 16.0934 0 0
4:53 pm 16:53 Sunny 106 41.1 28 -2.2 6 6 VRB 7 11 29.76 1008 10 16.0934 0 0
5:53 pm 17:53 Sunny 105 40.6 36 2.2 9 9 SE 9 15 29.74 1007 10 16.0934 0 0
6:53 pm 18:53 Sunny 105 40.6 25 -3.9 6 6 SW 7 11 29.74 1007 10 16.0934 0 0
7:53 pm 19:53 Clear 102 38.9 23 -5 6 6 SW 8 13 29.74 1007 10 16.0934 0 0
8:53 pm 20:53 Clear 99 37.2 25 -3.9 7 7 SSW 6 9 29.75 1008 10 16.0934 0 0
9:53 pm 21:53 Clear 96 35.6 28 -2.2 9 9 S 7 11 29.77 1008 10 16.0934 0 0
10:53 pm 22:53 Clear 93 33.9 29 -1.7 10 10 S 8 13 29.76 1008 10 16.0934 0 0
11:53 pm 23:53 Clear 92 33.3 31 -0.6 11 11 SW 3 6 29.75 1008 10 16.0934 0 0

Powered by AerisWeather